Погода в Нюрбе

Россия / Республика Саха (Якутия)     63°16′42″N   118°20′11″E
темп.,
°C
ветер,
м/с
пор.,
м/с
влажн.,
%
обл.,
%
осадки,
мм/ч
давл.,
гПа
погр.,
м
27 февраля, сб
сб2700:00−32св359862 0.0 102685
03:00−32св359850 0.0 1025105
06:00−33св239978 0.0 102557
09:00−32св249889 0.0 1025105
12:00−28с1294100 0.0 1025221
15:00−26с2496100 0.3 1024392
18:00−26сз1298100 0.4 1025224
21:00−26зсз2598100 0.8 1025292
28 февраля, вс
вс2800:00−27зсз2698100 0.2 1025347
03:00−27з2597100 0.3 1025271
06:00−29зюз3694100 0.0 1027197
09:00−32зюз3694100 0.0 1027214
12:00−29зюз3693100 0.0 1028361
15:00−26зюз3790100 0.0 1028552
18:00−27зюз2593100 0.0 1030132
21:00−31зюз239590 0.0 103140
1 марта, пн
пн100:00−33зюз239673 0.0 103122
03:00−35зюз239673 0.0 103121
06:00−36юз239858 0.0 103223
09:00−37юз239856 0.0 103245
12:00−31зюз249469 0.0 1031282
15:00−27юз249181 0.0 1029437
18:00−30юз129699 0.0 102919
21:00−33юз1110095 0.0 102919
2 марта, вт
вт200:00−35зюз1110076 0.0 102919
03:00−37сз0010080 0.0 102819
06:00−38юз0010060 0.0 102819
09:00−38ссв119950 0.0 102818
12:00−32св129148 0.0 1027249
15:00−29св228871 0.0 1026372
18:00−32св129584 0.0 102719
21:00−35св129672 0.0 102819
3 марта, ср
ср300:00−35ссв229794 0.0 102824
03:00−36ссв229896 0.0 102819
06:00−39с129975 0.0 102818
09:00−39ссз129871 0.0 102918
12:00−33ссз129074 0.0 1028297
15:00−30сз238987 0.0 1027533
18:00−30сз2595100 0.0 1027416
21:00−31зсз2598100 0.1 1027192